Regional Weather Roundup
Issued by NWS

Home | Current Version | Previous Version | Text Only | Print | Product List | Glossary On
Versions: 1 2 3 4 5 6 7 8 9 10 11 12 13 14 15 16 17 18 19 20 21 22 23 24 25 26 27 28 29 30 31 32 33 34 35 36 37 38 39 40 41 42 43 44 45 46 47 48 49 50
000
ASUS44 KOUN 251210
RWROK

WEATHER ROUNDUP FOR OKLAHOMA
NATIONAL WEATHER SERVICE NORMAN OK
700 AM CDT SUN JUN 25 2017

NOTE: "FAIR" INDICATES FEW OR NO CLOUDS BELOW 12,000 FEET WITH NO
      SIGNIFICANT WEATHER AND/OR OBSTRUCTIONS TO VISIBILITY.

OKZ001>007-009>012-014-015-017-251300-
NORTHWEST OKLAHOMA AND THE PANHANDLE

CITY           SKY/WX    TMP DP  RH WIND       PRES   REMARKS
GAGE           CLOUDY    68  54  60 S10       30.26S
6HR MIN TEMP:  67; 6HR MAX TEMP:  71;

GUYMON         LGT RAIN  66  62  87 S5        30.29R
ENID/WOODRING  CLEAR     61  59  94 NE3       30.25R
$$

OKZ016-021>023-033>039-044-045-251300-
SOUTHWEST OKLAHOMA

CITY           SKY/WX    TMP DP  RH WIND       PRES   REMARKS
LAWTON/REGL    PTCLDY    66  61  84 E6        30.24R
6HR MIN TEMP:  64; 6HR MAX TEMP:  68;

LAWTON/FT SILL CLOUDY    68  60  76 E6        30.23S
FREDERICK      PTCLDY    68  61  78 NE5       30.23R
CLINTON        CLOUDY    68  52  56 S10       30.27S
HOBART         CLOUDY    65  60  84 W3        30.27R
ALTUS AFB      PTCLDY    66  59  76 CALM      30.26R
$$

OKZ018>020-024>031-251300-
CENTRAL OKLAHOMA

CITY           SKY/WX    TMP DP  RH WIND       PRES   REMARKS
OKLAHOMA CITY  PTCLDY    62  55  77 S3        30.24F
6HR MIN TEMP:  62; 6HR MAX TEMP:  69;

OKC/WILEY POST CLEAR     69  56  62 SE9       30.24S
OKC/TINKER AFB CLEAR     64  55  72 SE5       30.24S
STILLWATER     CLEAR     64  59  83 NE7       30.26R
GUTHRIE        CLEAR     68  57  68 SE3       30.25R
$$

OKZ008-013-054>072-251300-
NORTHEAST OKLAHOMA

CITY           SKY/WX    TMP DP  RH WIND       PRES   REMARKS
TULSA          PTCLDY    69  60  73 NE6       30.25R
6HR MIN TEMP:  66; 6HR MAX TEMP:  73;

TULSA/JONES    PTCLDY    65  59  81 N3        30.25S
PONCA CITY     CLEAR     62  57  83 CALM      30.26S
BARTLESVILLE   CLEAR     61  58  90 CALM      30.28S
MUSKOGEE       CLEAR     64  62  93 CALM      30.26S
$$

OKZ032-040>043-046>053-073>077-251300-
SOUTH CENTRAL/SOUTHEAST OKLAHOMA

CITY           SKY/WX    TMP DP  RH WIND       PRES   REMARKS
ARDMORE/DWNTWN CLOUDY    66  57  72 CALM      30.23S
MCALESTER      CLOUDY    71  63  75 CALM      30.25R
$$





USA.gov is the U.S. government's official web portal to all federal, state and local government web resources and services.